Regional Weather Roundup
Issued by NWS

Home | Current Version | Previous Version | Graphics & Text | Print | Product List | Glossary On
Versions: 1 2 3 4 5 6 7 8 9 10 11 12 13 14 15 16 17 18 19 20 21 22 23 24 25 26 27 28 29 30 31 32 33 34 35 36 37 38 39 40 41 42 43 44 45 46 47 48 49 50
000
ASUS43 KLOT 041312
RWRIL

ILLINOIS REGIONAL WEATHER ROUNDUP
NATIONAL WEATHER SERVICE CHICAGO/ROMEOVILLE IL
800 AM CDT SAT JUL 04 2015

NOTE: "FAIR" INDICATES FEW OR NO CLOUDS BELOW 12,000 FEET WITH NO
SIGNIFICANT WEATHER AND/OR OBSTRUCTIONS TO VISIBILITY.

* THESE STATIONS ARE NOT UNDER NWS QUALITY CONTROL. THEY ALSO MAY NOT
  REPORT WEATHER SUCH AS PRECIPITATION OR FOG.

ILZ001-002-007-009-015-016-024-041400-
NORTHWEST ILLINOIS

CITY           SKY/WX    TMP DP  RH WIND       PRES   REMARKS
MOLINE         SUNNY     64  60  87 CALM      30.00R FOG
STERLING*      SUNNY     61  61 100 CALM      30.00S
SAVANNA*       SUNNY     64  61  91 CALM      30.00S
$$

ILZ003-004-008-010-011-017-018-041400-
NORTH CENTRAL ILLINOIS

CITY           SKY/WX    TMP DP  RH WIND       PRES   REMARKS
ROCKFORD       SUNNY     62  57  83 CALM      30.01R
FREEPORT*      SUNNY     63  57  83 CALM      30.02R
ROCHELLE*      SUNNY     60  58  92 CALM      30.01S
DE KALB*       SUNNY     63  56  76 NW5       30.01S
PERU*          SUNNY     65  58  77 CALM      30.01R
$$

ILZ005-006-012>014-019>023-041400-
NORTHEAST ILLINOIS

CITY           SKY/WX    TMP DP  RH WIND       PRES   REMARKS
CHICAGO-OHARE  SUNNY     67  56  67 NW5       29.98S
CHICAGO-MIDWAY SUNNY     68  58  70 NW5       29.99R
AURORA         SUNNY     65  58  78 NW5       30.00S HAZE
LANSING*       SUNNY     64  57  79 CALM      30.00R HAZE
JOLIET*        SUNNY     66  61  84 CALM      29.99S HAZE
WAUKEGAN       SUNNY     66  58  75 CALM      29.98S
DUPAGE AIRPORT SUNNY     66  59  78 CALM      29.99R
KANKAKEE*      SUNNY     65  61  89 CALM      30.01R
WHEELING       SUNNY     67  57  70 CALM      30.00R
MORRIS*        SUNNY     64  60  84 CALM      29.98R
ROMEOVILLE*    SUNNY     65  58  78 CALM      30.00R HAZE
NORTHERLY ISL    N/A     69  55  60 W7          N/A
$$

LMZ740>746-041400-
SOUTHERN LAKE MICHIGAN

STATION/POSITION SKY/WX   TEMP    WIND        PRES    VSBY  WAVE
                          AIR SEA DIR/SP/G                  HT/PER
                          (F)     (DEG/KT/KT) (MB)    (MI)  (FT/S)
HARRISON CRIB              65     280/ 10/ 10   N/A
BURNHAM HARBOR             70     290/  4/ 10   N/A
CALUMET HARBOR             64     250/  2/  4   N/A
BURNS HARBOR               62     190/  3/  4 1015.9R
MICHIGAN CITY              61     150/  3/  3   N/A
MICHIGAN CITY 6N           62 63  170/  4/  4   N/A           0
ST. JOSEPH                 61 62                N/A           0
$$

ILZ025>027-034>036-040-047-049-050-058-095>099-041400-
WEST-CENTRAL ILLINOIS

CITY           SKY/WX    TMP DP  RH WIND       PRES   REMARKS
QUINCY         SUNNY     67  62  84 CALM      30.01R
GALESBURG*     SUNNY     65  61  87 CALM      30.01R
MACOMB*        SUNNY     63  61  95 CALM      30.03S
JACKSONVILLE*  SUNNY     68  66  92 CALM      30.02R FOG
PITTSFIELD*    SUNNY     67  64  92 CALM      30.03R FOG
$$

ILZ028>032-037-038-041>044-048-051>054-059>061-041400-
CENTRAL ILLINOIS

CITY           SKY/WX    TMP DP  RH WIND       PRES   REMARKS
PONTIAC        SUNNY     65  63  92 CALM      30.01R FOG
BLOOMINGTON    SUNNY     67  60  78 CALM      30.02R
DECATUR        SUNNY     63  60  90 CALM      30.02R
PEORIA         SUNNY     69  62  78 NE3       30.01R
LACON*         SUNNY     64  61  90 CALM      30.00R FOG
LINCOLN*       SUNNY     65  61  89 CALM      30.02R FOG
SPRINGFIELD    SUNNY     69  64  84 CALM      30.01R
TAYLORVILLE    SUNNY     63  63 100 CALM      30.02R FOG
$$

ILZ033-039-045-046-055>057-062-063-041400-
EAST-CENTRAL ILLINOIS

CITY           SKY/WX    TMP DP  RH WIND       PRES   REMARKS
CHAMPAIGN      SUNNY     67  63  87 CALM      30.01R
DANVILLE*      SUNNY     64  61  91 CALM      29.98R FOG
RANTOUL*       SUNNY     68  63  83 CALM      30.01R
MATTOON        SUNNY     65  61  87 CALM      30.01R FOG
PARIS*         SUNNY     64  64  98 CALM      30.02R FOG
$$

ILZ079-100>102-041400-
SOUTHWEST ILLINOIS

CITY           SKY/WX    TMP DP  RH WIND       PRES   REMARKS
ALTON          SUNNY     66  66 100 CALM      30.01R FOG
BELLEVILLE     SUNNY     69  69 100 CALM      30.00R
CAHOKIA*       SUNNY     71  66  84 CALM      30.01R
SPARTA*        SUNNY     69  67  94 CALM      30.01R FOG
$$

ILZ064>066-069>071-074>076-080>082-084>086-088>090-092>094-041400-
SOUTH-CENTRAL ILLINOIS

CITY           SKY/WX    TMP DP  RH WIND       PRES   REMARKS
CARBONDALE     PTSUNNY   70  68  93 E3        30.00R FOG
CAIRO*         SUNNY     72  70  95 CALM      29.99R FOG
EFFINGHAM*     SUNNY     67  62  84 CALM      30.02R HAZE
MARION         FOG       68  68 100 N5        30.01R VSB 1/2
MT. VERNON     SUNNY     68  63  83 CALM      30.01R
CENTRALIA*     SUNNY     68  64  86 CALM      30.00S FOG
SALEM*         SUNNY     71  65  82 CALM      30.01R HAZE
METROPOLIS*    CLOUDY    70  70 100 CALM      29.99S FOG
$$

ILZ067-068-072-073-078-083-087-091-041400-
SOUTHEAST ILLINOIS

CITY           SKY/WX    TMP DP  RH WIND       PRES   REMARKS
LAWRENCEVILLE  SUNNY     70  66  87 CALM      30.00R FOG
FLORA*         SUNNY     67  65  94 CALM      30.01R FOG
FAIRFIELD*     SUNNY     69  66  92 CALM      29.99S FOG
HARRISBURG*    CLOUDY    68  68 100 CALM      30.00S FOG
ROBINSON*      SUNNY     68  65  90 NE5       30.01R
CARMI*         SUNNY     70  64  79 CALM      29.99S HAZE
$$

ABBREVIATIONS USED IN REMARKS
   TC - TEMPERATURE IN CELSIUS
  WCI - WIND CHILL INDEX
   HX - HEAT INDEX
  VSB - VISIBILITY
$$



USA.gov is the U.S. government's official web portal to all federal, state and local government web resources and services.